Terminal Aerodrome Forecast
Issued by NWS Omaha/Valley, NE

Home | Current Version | Previous Version | Text Only | Print | Product List | Glossary On
Versions: 1 2 3 4 5 6 7 8 9 10 11 12 13 14 15 16 17 18 19 20 21 22 23 24 25 26 27 28 29 30 31 32
000
FTUS43 KOAX 031533 AAB
TAFOMA
TAF AMD
KOMA 031533Z 0316/0412 30013G20KT 1 1/2SM -DZ BR OVC006
      TEMPO 0316/0317 3SM BR OVC012
     FM031700 33017G27KT P6SM OVC015
     FM032100 31024G33KT P6SM BKN035
     FM040300 34014KT P6SM SCT040 BKN150=

USA.gov is the U.S. government's official web portal to all federal, state and local government web resources and services.